Location: Bramevaque
(42.9773°N, 0.5757°E)
Time: 20:03:28
(UTC+00:00)

NOSS 3-4 (A) - Pass Details

Date: 15 May 2026
Orbit: 769 x 1442 km, 63.4° (Epoch: 10 January)

Event Time Altitude Azimuth Distance (km) Brightness Sun altitude
Rises 22:31:17 0° 318° (NW) 3,797 7.7 -25.1°
Reaches altitude 10° 22:33:51 10° 313° (NW) 2,935 6.8 -25.3°
Maximum altitude 22:40:31 46° 242° (WSW) 1,576 4.4 -25.7°
Enters shadow 22:42:31 39° 206° (SSW) 1,790 4.5 -25.8°
